1484175600.88,56225,4.69,71754.8,-12.91,-26.45,-26.55,0,*6C
1484175602.17,56226,4.69,71762.0,-12.91,-26.13,-26.13,0,*6E
1484175603.47,56227,4.69,71756.8,-12.91,-26.13,-26.13,0,*6F
1484175604.77,56228,4.69,71758.3,-12.95,-26.17,-26.17,0,*64
1484175606.05,56229,4.69,71752.3,-12.95,-26.33,-26.45,0,*64
1484175607.32,56230,4.69,71746.3,-12.91,-26.29,-26.45,0,*63
1484175608.56,56231,4.69,71750.0,-12.91,-26.39,-26.45,0,*63
1484175609.82,56232,4.69,71752.3,-12.91,-26.45,-26.55,0,*6A
1484175611.07,56233,4.69,71752.8,-12.95,-26.45,-26.49,0,*62
1484175612.31,56234,4.69,71762.3,-12.91,-26.45,-26.45,0,*6D
1484175613.57,56235,4.69,71766.5,-12.91,-26.55,-26.45,0,*6D
1484175614.86,56236,4.69,71768.3,-12.91,-26.55,-26.55,0,*6F
1484175616.12,56237,4.69,71766.0,-12.91,-26.45,-26.55,0,*6F
1484175617.38,56238,4.69,71762.0,-12.91,-26.39,-26.55,0,*6B
1484175618.65,56239,4.69,71764.5,-12.91,-26.55,-26.61,0,*67
1484175619.91,56240,4.69,71762.8,-12.91,-26.55,-26.61,0,*69
1484175621.17,56241,4.69,71758.5,-12.95,-26.65,-26.65,0,*6B
1484175622.43,56242,4.69,71766.0,-12.91,-26.55,-26.61,0,*6B
1484175623.69,56243,4.69,71764.5,-12.91,-26.61,-26.55,0,*6A
1484175624.95,56244,4.69,71764.3,-12.95,-26.65,-26.61,0,*6A
1484175626.21,56245,4.69,71766.8,-12.91,-26.55,-26.61,0,*6C
1484175627.46,56246,4.69,71764.8,-12.95,-26.49,-26.61,0,*66
1484175628.75,56247,4.69,71764.3,-12.91,-26.55,-26.55,0,*69
1484175629.99,56248,4.69,71760.3,-12.95,-26.61,-26.49,0,*68
1484175631.28,56249,4.69,71760.5,-12.91,-26.55,-26.55,0,*67
1484175632.53,56250,4.69,71760.0,-12.95,-26.49,-26.49,0,*6B
1484175633.77,56251,4.69,71766.3,-12.95,-26.61,-26.45,0,*6C
1484175635.02,56252,4.69,71760.5,-12.95,-26.49,-26.49,0,*69
1484175636.27,56253,4.69,71766.0,-12.95,-26.61,-26.49,0,*62
1484175637.51,56254,4.69,71766.5,-12.95,-26.61,-26.49,0,*65
1484175638.76,56255,4.69,71764.3,-12.95,-26.45,-26.49,0,*62
1484175640.0,56256,4.69,71762.3,-12.95,-26.61,-26.49,0,*67
1484175641.25,56257,4.69,71762.0,-12.95,-26.61,-26.49,0,*66
1484175642.5,56258,4.69,71760.5,-12.95,-26.49,-26.45,0,*6F
1484175643.74,56259,4.69,71762.0,-12.95,-26.61,-26.45,0,*64
1484175644.99,56260,4.69,71762.3,-12.95,-26.49,-26.45,0,*64
1484175646.24,56261,4.69,71760.3,-12.95,-26.49,-26.45,0,*65
1484175647.52,56262,4.69,71758.0,-12.95,-26.61,-26.33,0,*6D
1484175648.8,56263,4.69,71744.5,-12.95,-26.49,-26.33,0,*66
1484175650.05,56264,4.69,71738.5,-12.97,-26.49,-26.33,0,*63
1484175651.27,56265,4.69,71740.3,-12.97,-26.61,-26.45,0,*69
1484175652.49,56266,4.69,71738.5,-12.97,-26.61,-26.45,0,*6A
1484175653.7,56267,4.69,71746.8,-12.97,-26.61,-26.49,0,*67
1484175654.92,56268,4.69,71750.3,-12.97,-26.49,-26.45,0,*6E
1484175656.14,56269,4.69,71752.8,-12.97,-26.49,-26.45,0,*6F
1484175657.39,56270,4.69,71740.0,-12.97,-26.49,-26.33,0,*66
1484175658.63,56271,4.69,71752.3,-12.97,-26.45,-26.29,0,*60
1484175659.89,56272,4.69,71754.0,-12.99,-26.49,-26.39,0,*60
1484175661.15,56273,4.69,71752.5,-12.99,-26.55,-26.49,0,*6B
1484175662.37,56274,4.69,71764.3,-12.97,-26.49,-26.45,0,*63
1484175663.61,56275,4.69,71762.3,-12.97,-26.49,-26.29,0,*68
1484175664.86,56276,4.69,71760.0,-12.99,-26.49,-26.23,0,*6F
1484175666.13,56277,4.69,71758.8,-12.95,-26.45,-26.13,0,*6D
1484175667.41,56278,4.69,71744.8,-12.97,-26.33,-26.17,0,*65
1484175668.65,56279,4.69,71740.0,-12.97,-26.45,-26.33,0,*63
1484175669.9,56280,4.69,71730.8,-12.97,-26.61,-26.33,0,*63
1484175671.16,56281,4.69,71730.8,-12.99,-26.65,-26.39,0,*62
1484175672.41,56282,4.69,71734.0,-12.99,-26.65,-26.39,0,*61
1484175673.66,56283,4.69,71740.5,-12.97,-26.49,-26.29,0,*61
1484175674.95,56284,4.69,71748.0,-12.99,-26.55,-26.17,0,*68
1484175676.19,56285,4.69,71758.3,-12.99,-26.39,-26.23,0,*64
1484175677.43,56286,4.69,71764.5,-12.97,-26.45,-26.13,0,*61
1484175678.71,56287,4.69,71760.8,-12.99,-26.49,-26.17,0,*66
1484175679.98,56288,4.69,71762.3,-12.97,-26.33,-26.13,0,*6E
1484175681.23,56289,4.69,71764.8,-12.99,-26.49,-26.23,0,*6F
1484175682.51,56290,4.69,71764.3,-12.95,-26.29,-26.03,0,*6F
1484175683.76,56291,4.69,71764.0,-12.97,-26.29,-26.03,0,*6C
1484175685.0,56292,4.69,71772.0,-12.99,-26.49,-26.07,0,*63
1484175686.25,56293,4.69,71770.8,-12.97,-26.29,-26.03,0,*6E
1484175687.51,56294,4.69,71774.0,-12.97,-26.33,-26.03,0,*62
1484175688.79,56295,4.69,71760.0,-12.99,-26.33,-26.03,0,*6D
1484175690.03,56296,4.69,71752.5,-12.99,-26.23,-26.03,0,*6F
1484175691.31,56297,4.69,71758.0,-12.99,-26.33,-26.03,0,*6F
1484175692.59,56298,4.69,71756.5,-12.99,-26.33,-26.07,0,*64
1484175693.87,56299,4.69,71756.0,-12.99,-26.33,-26.03,0,*61
1484175695.12,56300,4.69,71760.0,-12.99,-26.39,-26.03,0,*6A
1484175696.39,56301,4.69,71760.3,-12.99,-26.33,-26.07,0,*65
1484175697.67,56302,4.69,71756.5,-12.97,-26.29,-25.97,0,*69
1484175698.92,56303,4.69,71754.8,-12.97,-26.29,-26.03,0,*66
1484175700.16,56304,4.69,71758.0,-12.97,-26.29,-26.03,0,*61
1484175701.4,56305,4.69,71744.0,-12.99,-26.23,-25.91,0,*6C
1484175702.67,56306,4.69,71750.0,-12.97,-26.17,-25.81,0,*67
1484175703.92,56307,4.69,71758.8,-12.97,-26.13,-25.65,0,*68
1484175705.19,56308,4.69,71750.3,-12.99,-25.91,-25.55,0,*63
1484175706.46,56309,4.69,71746.8,-12.99,-25.91,-25.55,0,*62
1484175707.74,56310,4.69,71750.8,-12.97,-26.13,-25.71,0,*6B
1484175709.01,56311,4.69,71752.3,-12.99,-26.07,-25.75,0,*65
1484175710.29,56312,4.69,71762.3,-12.97,-26.17,-25.71,0,*6D
1484175711.54,56313,4.69,71762.5,-12.97,-25.97,-25.65,0,*62
1484175712.78,56314,4.69,71744.3,-12.99,-25.91,-25.39,0,*64
1484175714.0,56315,4.69,71732.5,-12.97,-25.65,-25.19,0,*62
1484175715.25,56316,4.69,71736.5,-12.97,-25.71,-25.19,0,*64
1484175716.52,56317,4.69,71758.5,-12.99,-25.75,-25.35,0,*61
1484175717.78,56318,4.69,71750.8,-12.97,-25.81,-25.45,0,*6C
1484175719.04,56319,4.69,71732.5,-12.95,-25.87,-25.49,0,*65
1484175720.3,56320,4.69,71740.3,-12.95,-25.87,-25.61,0,*65
1484175721.56,56321,4.69,71754.8,-12.95,-25.87,-25.49,0,*6E
1484175722.8,56322,4.69,71750.3,-12.95,-25.87,-25.35,0,*66
1484175724.05,56323,4.69,71740.5,-12.95,-25.61,-25.19,0,*61
1484175725.33,56324,4.69,71744.5,-12.95,-25.61,-25.03,0,*6D
1484175726.56,56325,4.69,71714.0,-12.91,-25.23,-24.77,0,*6C
1484175727.81,56326,4.69,71766.8,-12.91,-25.61,-25.09,0,*61
1484175729.05,56327,4.69,71756.8,-12.91,-25.61,-25.13,0,*6B
1484175730.29,56328,4.69,71746.3,-12.91,-25.23,-24.77,0,*61
1484175731.53,56329,4.69,71722.3,-12.89,-25.19,-24.71,0,*66
1484175732.77,56330,4.69,71720.0,-12.89,-25.19,-24.71,0,*6E
1484175734.03,56331,4.69,71750.0,-12.91,-25.29,-24.77,0,*63
1484175735.27,56332,4.69,71736.0,-12.89,-25.39,-24.87,0,*67
1484175736.52,56333,4.69,71736.0,-12.91,-25.65,-25.09,0,*61
1484175737.74,56334,4.69,71738.0,-12.89,-25.61,-25.09,0,*6B
1484175738.98,56335,4.69,71736.8,-12.89,-25.71,-25.19,0,*6A
1484175740.23,56336,4.69,71736.3,-12.89,-25.71,-25.19,0,*69
1484175741.44,56337,4.69,71738.8,-12.89,-25.61,-25.19,0,*69
1484175742.66,56338,4.69,71728.3,-12.89,-25.61,-25.23,0,*6F
1484175743.9,56339,4.69,71734.5,-12.89,-25.55,-25.09,0,*61
1484175745.12,56340,4.69,71736.0,-12.89,-25.61,-25.09,0,*68
1484175746.37,56341,4.69,71728.3,-12.89,-25.71,-25.09,0,*68
1484175747.62,56342,4.69,71738.0,-12.89,-25.71,-25.09,0,*6B
1484175748.87,56343,4.69,71738.8,-12.89,-25.71,-25.19,0,*6B
1484175750.12,56344,4.69,71716.5,-12.89,-25.71,-25.09,0,*6D
1484175751.39,56345,4.69,71736.8,-12.87,-25.71,-25.09,0,*62
1484175752.67,56346,4.69,71732.5,-12.87,-25.71,-25.09,0,*61
1484175753.94,56347,4.69,71738.0,-12.87,-25.61,-25.03,0,*6B
1484175755.24,56348,4.69,71736.3,-12.87,-25.55,-25.03,0,*63
1484175756.53,56349,4.69,71746.8,-12.87,-25.71,-25.03,0,*64
1484175757.78,56350,4.69,71746.0,-12.85,-25.55,-24.97,0,*64
1484175759.04,56351,4.69,71736.3,-12.87,-25.35,-24.87,0,*60
1484175760.34,56352,4.69,71734.8,-12.87,-25.55,-25.03,0,*68
1484175761.61,56353,4.69,71726.5,-12.87,-25.55,-24.93,0,*61
1484175762.87,56354,4.69,71722.3,-12.87,-25.39,-24.87,0,*69
1484175764.13,56355,4.69,71730.3,-12.85,-25.29,-24.67,0,*65
1484175765.39,56356,4.69,71734.5,-12.85,-25.45,-24.87,0,*62
1484175766.67,56357,4.69,71722.5,-12.87,-25.71,-25.09,0,*61
1484175767.88,56358,4.69,71736.3,-12.85,-25.65,-25.13,0,*62
1484175769.16,56359,4.69,71734.5,-12.87,-25.75,-25.09,0,*6B
1484175770.37,56360,4.69,71730.5,-12.85,-25.65,-24.97,0,*64
1484175771.64,56361,4.69,71742.0,-12.87,-25.71,-25.19,0,*65
1484175772.88,56362,4.69,71730.3,-12.85,-25.65,-25.03,0,*6A
1484175774.13,56363,4.69,71740.8,-12.85,-25.65,-25.03,0,*6B
1484175775.34,56364,4.69,71738.3,-12.85,-25.65,-25.13,0,*6D
1484175776.59,56365,4.69,71736.5,-12.87,-25.87,-25.19,0,*68
1484175777.82,56366,4.69,71740.3,-12.85,-25.81,-25.19,0,*6F
1484175779.07,56367,4.69,71746.3,-12.87,-25.87,-25.19,0,*6A
1484175780.31,56368,4.69,71746.5,-12.87,-25.91,-25.23,0,*6B
1484175781.55,56369,4.69,71750.5,-12.87,-25.87,-25.19,0,*64
1484175782.79,56370,4.69,71754.8,-12.87,-25.87,-25.19,0,*6C
1484175784.06,56371,4.69,71756.0,-12.85,-25.75,-25.03,0,*69
1484175785.3,56372,4.69,71758.0,-12.85,-25.81,-25.19,0,*6A
1484175786.57,56373,4.69,71762.0,-12.87,-25.75,-25.19,0,*62
1484175787.81,56374,4.69,71760.5,-12.87,-25.87,-25.19,0,*68
1484175789.08,56375,4.69,71758.5,-12.87,-25.75,-25.09,0,*65
1484175790.36,56376,4.69,71760.3,-12.87,-25.75,-25.09,0,*66
1484175791.63,56377,4.69,71764.0,-12.87,-25.75,-25.09,0,*67
1484175792.93,56378,4.69,71764.0,-12.87,-25.71,-25.03,0,*66
1484175794.21,56379,4.69,71766.0,-12.87,-25.71,-25.09,0,*6D
1484175795.45,56380,4.69,71760.3,-12.89,-25.75,-25.09,0,*61
1484175796.7,56381,4.69,71766.0,-12.89,-25.75,-25.09,0,*60
1484175797.91,56382,4.69,71762.5,-12.89,-25.87,-25.19,0,*6F
1484175799.18,56383,4.69,71762.5,-12.89,-25.75,-25.03,0,*68
1484175800.42,56384,4.69,71760.0,-12.89,-25.61,-25.03,0,*6A
1484175801.66,56385,4.69,71764.5,-12.89,-25.71,-24.93,0,*62
1484175802.94,56386,4.69,71770.8,-12.91,-25.75,-25.09,0,*6E
1484175804.18,56387,4.69,71770.0,-12.91,-25.61,-25.09,0,*6A
1484175805.42,56388,4.69,71774.0,-12.89,-25.61,-25.03,0,*66
1484175806.69,56389,4.69,71768.5,-12.89,-25.71,-25.03,0,*66
1484175807.96,56390,4.69,71720.0,-12.89,-25.71,-25.03,0,*6E
1484175809.24,56391,4.69,71722.3,-12.91,-25.75,-25.09,0,*68
1484175810.51,56392,4.69,71692.0,-12.91,-25.75,-25.09,0,*6B
1484175811.75,56393,4.69,71690.8,-12.89,-25.71,-24.93,0,*65
1484175812.99,56394,4.69,71682.8,-12.91,-25.65,-24.97,0,*6A
1484175814.23,56395,4.69,71700.3,-12.91,-25.61,-24.97,0,*6F
1484175815.51,56396,4.69,71710.3,-12.91,-25.75,-25.09,0,*6F
1484175816.78,56397,4.69,71720.3,-12.91,-25.75,-25.09,0,*6E
1484175818.05,56398,4.69,71732.5,-12.91,-25.75,-25.09,0,*61
1484175819.3,56399,4.69,71732.5,-12.91,-25.65,-25.09,0,*61
1484175820.57,56400,4.69,71730.0,-12.91,-25.75,-25.09,0,*67
1484175821.81,56401,4.69,71746.8,-12.91,-25.65,-24.97,0,*61
1484175823.1,56402,4.69,71736.8,-12.91,-25.45,-24.83,0,*65
1484175824.38,56403,4.69,71754.5,-12.91,-25.45,-24.83,0,*64
1484175825.64,56404,4.69,71746.0,-12.91,-25.45,-24.77,0,*68
1484175826.93,56405,4.69,71758.3,-12.91,-25.29,-24.67,0,*62
1484175828.21,56406,4.69,71754.5,-12.91,-25.29,-24.67,0,*61
1484175829.49,56407,4.69,71758.8,-12.91,-25.29,-24.67,0,*60
1484175830.75,56408,4.69,71752.3,-12.91,-25.23,-24.67,0,*65
1484175831.99,56409,4.69,71756.3,-12.91,-25.13,-24.47,0,*65
1484175833.23,56410,4.69,71762.3,-12.91,-25.23,-24.47,0,*6E
1484175834.49,56411,4.69,71770.0,-12.91,-25.29,-24.57,0,*64
1484175835.73,56412,4.69,71770.3,-12.91,-25.09,-24.47,0,*64
1484175836.98,56413,4.69,71750.5,-12.91,-25.13,-24.47,0,*6E
1484175838.24,56414,4.69,71750.5,-12.91,-25.09,-24.41,0,*64
1484175839.48,56415,4.69,71744.5,-12.95,-24.97,-24.35,0,*64
1484175840.73,56416,4.69,71726.3,-12.91,-24.93,-24.15,0,*65
1484175841.99,56417,4.69,71742.3,-12.91,-24.93,-24.41,0,*65
1484175843.25,56418,4.69,71758.3,-12.91,-24.97,-24.41,0,*6E
1484175844.48,56419,4.69,71750.3,-12.91,-24.93,-24.31,0,*6C
1484175845.77,56420,4.69,71742.0,-12.91,-24.67,-24.15,0,*6B
1484175847.03,56421,4.69,71750.0,-12.91,-24.77,-24.15,0,*6B
1484175848.3,56422,4.69,71732.0,-12.91,-24.57,-23.99,0,*69
1484175849.58,56423,4.69,71738.3,-12.91,-24.67,-24.15,0,*68
1484175850.82,56424,4.69,71736.8,-12.89,-24.57,-23.95,0,*6A
1484175852.08,56425,4.69,71744.3,-12.91,-24.61,-23.99,0,*6B
1484175853.37,56426,4.69,71742.0,-12.91,-24.67,-24.11,0,*69
1484175854.65,56427,4.69,71750.5,-12.91,-24.67,-24.11,0,*68
1484175855.89,56428,4.69,71748.8,-12.89,-24.61,-24.11,0,*68
1484175857.13,56429,4.69,71756.0,-12.89,-24.61,-24.11,0,*69
1484175858.4,56430,4.69,71758.3,-12.91,-24.77,-24.25,0,*68
1484175859.67,56431,4.69,71756.0,-12.91,-24.77,-24.41,0,*6B
1484175860.94,56432,4.69,71750.5,-12.89,-24.71,-24.25,0,*65
1484175862.21,56433,4.69,71740.0,-12.91,-24.67,-24.31,0,*6F
1484175863.48,56434,4.69,71748.3,-12.91,-24.77,-24.41,0,*6E
1484175864.71,56435,4.69,71744.8,-12.89,-24.61,-24.11,0,*64
1484175865.98,56436,4.69,71762.0,-12.91,-24.67,-24.31,0,*6A
1484175867.22,56437,4.69,71760.3,-12.91,-24.77,-24.57,0,*6A
1484175868.46,56438,4.69,71762.5,-12.91,-24.61,-24.31,0,*62
1484175869.76,56439,4.69,71754.5,-12.91,-24.67,-24.41,0,*62
1484175871.03,56440,4.69,71754.3,-12.91,-24.57,-24.25,0,*6D
1484175872.24,56441,4.69,71760.3,-12.89,-24.61,-24.35,0,*61
1484175873.51,56442,4.69,71754.8,-12.91,-24.47,-24.15,0,*6D
1484175874.8,56443,4.69,71762.3,-12.91,-24.41,-24.15,0,*6A
1484175876.07,56444,4.69,71754.3,-12.89,-24.41,-24.21,0,*63
1484175877.36,56445,4.69,71748.5,-12.91,-24.15,-23.99,0,*6E
1484175878.66,56446,4.69,71766.3,-12.91,-24.25,-24.11,0,*69
1484175879.89,56447,4.69,71758.0,-12.89,-23.89,-23.95,0,*6B
1484175881.18,56448,4.69,71764.0,-12.91,-23.95,-23.95,0,*60
1484175882.41,56449,4.69,71760.3,-12.89,-23.85,-23.89,0,*64
1484175883.62,56450,4.69,71762.0,-12.89,-23.89,-23.89,0,*60
1484175884.88,56451,4.69,71758.3,-12.89,-23.95,-23.95,0,*61
1484175886.1,56452,4.69,71762.3,-12.89,-23.89,-24.05,0,*61
1484175887.33,56453,4.69,71764.3,-12.89,-23.79,-23.95,0,*61
1484175888.57,56454,4.69,71764.8,-12.89,-23.79,-24.11,0,*6D
1484175889.8,56455,4.69,71762.8,-12.89,-23.79,-23.95,0,*67
1484175891.04,56456,4.69,71756.3,-12.89,-23.79,-23.95,0,*64
1484175892.28,56457,4.69,71760.5,-12.89,-23.75,-23.95,0,*69
1484175893.5,56458,4.69,71762.8,-12.89,-23.75,-24.05,0,*68
1484175894.72,56459,4.69,71756.5,-12.89,-23.75,-24.05,0,*69
1484175895.96,56460,4.69,71754.5,-12.89,-23.79,-24.11,0,*6A
1484175897.17,56461,4.69,71746.0,-12.89,-23.79,-24.05,0,*6E
1484175898.43,56462,4.69,71734.3,-12.89,-23.49,-23.95,0,*60
1484175899.65,56463,4.69,71738.5,-12.89,-23.59,-24.05,0,*6E
1484175900.86,56464,4.69,71762.8,-12.89,-23.59,-24.05,0,*69
1484175902.1,56465,4.69,71756.0,-12.89,-23.65,-24.05,0,*67
1484175903.34,56466,4.69,71760.5,-12.89,-23.65,-24.05,0,*64
1484175904.56,56467,4.69,71736.3,-12.89,-23.59,-24.05,0,*6A
1484175905.8,56468,4.69,71736.8,-12.89,-23.43,-23.95,0,*60
1484175907.02,56469,4.69,71746.0,-12.89,-23.43,-24.05,0,*6F
1484175908.25,56470,4.69,71738.3,-12.89,-23.59,-24.11,0,*69
1484175909.48,56471,4.69,71738.8,-12.89,-23.39,-23.95,0,*65
1484175910.74,56472,4.69,71736.3,-12.87,-23.23,-24.05,0,*6D
1484175912.03,56473,4.69,71728.8,-12.87,-23.23,-23.95,0,*62
1484175913.3,56474,4.69,71746.5,-12.87,-23.29,-24.05,0,*61
1484175914.55,56475,4.69,71750.0,-12.87,-23.39,-24.11,0,*64
1484175915.83,56476,4.69,71746.5,-12.87,-23.43,-24.21,0,*69
1484175917.07,56477,4.69,71748.3,-12.87,-23.43,-24.35,0,*6D
1484175918.34,56478,4.69,71740.8,-12.87,-23.49,-24.35,0,*68
1484175919.6,56479,4.69,71740.0,-12.87,-23.49,-24.35,0,*69
1484175920.86,56480,4.69,71744.3,-12.87,-23.49,-24.35,0,*6F
1484175922.15,56481,4.69,71740.3,-12.87,-23.49,-24.41,0,*6D
1484175923.4,56482,4.69,71750.0,-12.87,-23.59,-24.51,0,*6E
1484175924.64,56483,4.69,71750.0,-12.89,-23.49,-24.51,0,*60
1484175925.87,56484,4.69,71744.0,-12.89,-23.39,-24.41,0,*61
1484175927.1,56485,4.69,71738.3,-12.87,-23.39,-24.35,0,*6D
1484175928.37,56486,4.69,71734.3,-12.87,-23.39,-24.41,0,*6D
1484175929.63,56487,4.69,71736.3,-12.87,-23.39,-24.41,0,*6C
1484175930.87,56488,4.69,71744.5,-12.89,-23.43,-24.41,0,*60
1484175932.14,56489,4.69,71754.0,-12.91,-23.43,-24.67,0,*6C
1484175933.38,56490,4.69,71756.8,-12.89,-23.49,-24.61,0,*61
1484175934.67,56491,4.69,71762.0,-12.91,-23.49,-24.67,0,*6F
1484175935.91,56492,4.69,71770.8,-12.91,-23.43,-24.57,0,*65
1484175937.15,56493,4.69,71770.3,-12.89,-23.49,-24.51,0,*61
1484175938.42,56494,4.69,71768.3,-12.91,-23.33,-24.47,0,*65
1484175939.68,56495,4.69,71764.5,-12.89,-23.29,-24.41,0,*60
1484175940.92,56496,4.69,71770.0,-12.89,-23.29,-24.51,0,*62
1484175942.16,56497,4.69,71772.8,-12.89,-23.33,-24.51,0,*68
1484175943.4,56498,4.69,71768.8,-12.89,-23.29,-24.61,0,*6F
1484175944.69,56499,4.69,71772.3,-12.91,-23.33,-24.67,0,*6A
1484175945.96,56500,4.69,71770.5,-12.89,-23.29,-24.71,0,*6E
1484175947.24,56501,4.69,71768.5,-12.91,-23.33,-24.67,0,*6A
1484175948.53,56502,4.69,71762.0,-12.91,-23.29,-24.67,0,*62
1484175949.77,56503,4.69,71758.0,-12.89,-23.29,-24.61,0,*6C
1484175950.99,56504,4.69,71752.0,-12.89,-23.13,-24.61,0,*62
1484175952.28,56505,4.69,71756.3,-12.91,-23.19,-24.67,0,*66
1484175953.55,56506,4.69,71752.8,-12.91,-23.19,-24.77,0,*64
1484175954.81,56507,4.69,71754.0,-12.91,-23.33,-24.77,0,*6D
1484175956.1,56508,4.69,71754.8,-12.91,-23.29,-24.67,0,*68
1484175957.32,56509,4.69,71750.5,-12.89,-23.13,-24.61,0,*6F
1484175958.59,56510,4.69,71750.5,-12.91,-23.19,-24.57,0,*61
1484175959.87,56511,4.69,71754.3,-12.91,-23.19,-24.67,0,*63
1484175961.14,56512,4.69,71750.8,-12.91,-23.19,-24.57,0,*63
1484175962.43,56513,4.69,71750.0,-12.91,-23.19,-24.67,0,*61
1484175963.72,56514,4.69,71748.8,-12.91,-23.19,-24.67,0,*66
1484175964.99,56515,4.69,71742.0,-12.91,-23.19,-24.57,0,*64
1484175966.27,56516,4.69,71736.3,-12.91,-23.29,-24.67,0,*67
1484175967.57,56517,4.69,71738.0,-12.95,-23.33,-24.83,0,*63
1484175968.86,56518,4.69,71746.0,-12.91,-23.29,-24.67,0,*69
1484175970.13,56519,4.69,71736.0,-12.91,-23.03,-24.57,0,*63
1484175971.37,56520,4.69,71748.3,-12.95,-22.87,-24.31,0,*60
1484175972.63,56521,4.69,71766.8,-12.91,-22.87,-24.41,0,*62
1484175973.87,56522,4.69,71752.8,-12.91,-22.87,-24.47,0,*67
1484175975.14,56523,4.69,71750.5,-12.91,-22.97,-24.41,0,*61
1484175976.41,56524,4.69,71752.3,-12.91,-22.97,-24.41,0,*66
1484175977.68,56525,4.69,71756.5,-12.91,-22.97,-24.41,0,*67
1484175978.95,56526,4.69,71762.5,-12.91,-22.97,-24.41,0,*64
1484175980.19,56527,4.69,71754.8,-12.91,-22.97,-24.31,0,*62
1484175981.46,56528,4.69,71750.0,-12.91,-22.83,-24.25,0,*6D
1484175982.7,56529,4.69,71738.5,-12.95,-22.87,-24.35,0,*6D
1484175983.94,56530,4.69,71720.5,-12.91,-22.83,-24.31,0,*61
1484175985.2,56531,4.75,71736.0,-12.91,-22.87,-24.41,0,*63
1484175986.45,56532,4.69,71738.5,-12.95,-22.93,-24.61,0,*63
1484175987.7,56533,4.69,71730.0,-12.91,-22.97,-24.57,0,*67
1484175988.96,56534,4.69,71736.0,-12.91,-22.87,-24.41,0,*66
1484175990.22,56535,4.69,71748.5,-12.91,-22.87,-24.41,0,*67
1484175991.48,56536,4.69,71730.3,-12.91,-22.87,-24.41,0,*64
1484175992.72,56537,4.69,71736.5,-12.91,-22.87,-24.57,0,*62
1484175993.97,56538,4.69,71742.3,-12.91,-22.97,-24.47,0,*6D
1484175995.21,56539,4.69,71746.8,-12.91,-22.97,-24.57,0,*6D
1484175996.45,56540,4.69,71744.3,-12.91,-22.97,-24.57,0,*63
1484175997.69,56541,4.69,71744.3,-12.91,-22.87,-24.47,0,*62
1484175998.93,56542,4.69,71728.0,-12.91,-22.87,-24.57,0,*60
1484176000.16,56543,4.69,71724.8,-12.91,-22.87,-24.57,0,*61
1484176001.4,56544,4.69,71726.8,-12.91,-22.87,-24.47,0,*67
1484176002.66,56545,4.69,71728.3,-12.91,-22.87,-24.67,0,*64
1484176003.92,56546,4.69,71734.8,-12.91,-22.97,-24.67,0,*66
1484176005.17,56547,4.69,71734.8,-12.91,-22.97,-24.57,0,*64
1484176006.41,56548,4.69,71738.8,-12.91,-22.97,-24.57,0,*6B
1484176007.68,56549,4.69,71744.0,-12.91,-22.97,-24.67,0,*69
1484176008.91,56550,4.69,71750.3,-12.91,-22.87,-24.57,0,*63
1484176010.15,56551,4.69,71754.8,-12.91,-22.87,-24.77,0,*60
1484176011.42,56552,4.69,71752.5,-12.91,-22.97,-24.67,0,*63
1484176012.68,56553,4.69,71754.8,-12.91,-22.97,-24.67,0,*62
1484176013.95,56554,4.69,71758.8,-12.91,-22.97,-24.67,0,*65
1484176015.19,56555,4.69,71748.8,-12.91,-22.87,-24.57,0,*66
1484176016.43,56556,4.69,71740.3,-12.91,-22.83,-24.47,0,*60
1484176017.67,56557,4.69,71744.8,-12.91,-22.87,-24.77,0,*66
1484176018.95,56558,4.69,71754.0,-12.95,-22.93,-24.71,0,*6E
1484176020.23,56559,4.69,71742.3,-12.95,-22.93,-24.71,0,*6F
1484176021.46,56560,4.69,71746.5,-12.91,-22.87,-24.47,0,*61
1484176022.7,56561,4.69,71748.8,-12.91,-22.83,-24.57,0,*65
1484176023.97,56562,4.69,71744.3,-12.91,-22.73,-24.47,0,*68
1484176025.23,56563,4.69,71750.0,-12.91,-22.73,-24.57,0,*68
1484176026.51,56564,4.69,71726.3,-12.95,-22.77,-24.51,0,*69
1484176027.75,56565,4.69,71722.8,-12.91,-22.67,-24.51,0,*6D
1484176028.99,56566,4.69,71732.3,-12.91,-22.67,-24.47,0,*69
1484176030.27,56567,4.69,71738.5,-12.95,-22.77,-24.51,0,*6A
1484176031.51,56568,4.69,71740.0,-12.91,-22.83,-24.47,0,*6D
1484176032.77,56569,4.69,71742.0,-12.91,-22.73,-24.47,0,*63
1484176034.04,56570,4.69,71742.3,-12.95,-22.73,-24.35,0,*6A
1484176035.28,56571,4.69,71756.8,-12.91,-22.67,-24.47,0,*6F
1484176036.55,56572,4.69,71750.3,-12.95,-22.73,-24.47,0,*6D
1484176037.82,56573,4.69,71752.5,-12.95,-22.73,-24.51,0,*6B
1484176039.08,56574,4.69,71748.3,-12.91,-22.73,-24.47,0,*6F
1484176040.36,56575,4.69,71756.5,-12.95,-22.77,-24.61,0,*6A
1484176041.62,56576,4.75,71760.3,-12.91,-22.73,-24.57,0,*6C
1484176042.87,56577,4.69,71756.3,-12.95,-22.87,-24.47,0,*63
1484176044.15,56578,4.69,71746.5,-12.95,-22.77,-24.47,0,*63
1484176045.43,56579,4.69,71730.8,-12.95,-22.77,-24.47,0,*62
1484176046.7,56580,4.69,71720.8,-12.95,-22.77,-24.35,0,*61
1484176047.98,56581,4.69,71726.5,-12.95,-22.77,-24.57,0,*64
1484176049.22,56582,4.69,71748.0,-12.95,-22.87,-24.51,0,*6E
1484176050.49,56583,4.69,71750.8,-12.95,-22.73,-24.51,0,*64
1484176051.75,56584,4.69,71736.8,-12.91,-22.67,-24.41,0,*63
1484176053.03,56585,4.69,71704.3,-12.95,-22.77,-24.35,0,*64
1484176054.29,56586,4.69,71704.3,-12.91,-22.37,-23.99,0,*66
1484176055.56,56587,4.69,71710.8,-12.95,-22.21,-23.89,0,*65
1484176056.85,56588,4.69,71720.3,-12.91,-22.21,-23.95,0,*63
1484176058.1,56589,4.69,71734.0,-12.95,-22.37,-24.05,0,*6F
1484176059.38,56590,4.69,71752.3,-12.95,-22.53,-24.21,0,*63
1484176060.65,56591,4.69,71744.3,-12.91,-22.53,-24.15,0,*61
1484176061.89,56592,4.69,71750.0,-12.95,-22.41,-24.05,0,*64
1484176063.18,56593,4.69,71762.0,-12.91,-22.31,-23.95,0,*68
1484176064.44,56594,4.69,71756.0,-12.91,-22.37,-23.99,0,*65
1484176065.71,56595,4.69,71738.0,-12.91,-22.37,-23.99,0,*64
1484176066.97,56596,4.69,71734.3,-12.91,-22.37,-23.99,0,*67
1484176068.24,56597,4.69,71720.3,-12.91,-22.37,-23.99,0,*66
1484176069.5,56598,4.69,71712.8,-12.91,-22.53,-24.15,0,*68
1484176070.77,56599,4.69,71712.5,-12.91,-22.67,-24.25,0,*6D
1484176072.04,56600,4.69,71726.0,-12.91,-22.67,-24.25,0,*6E
1484176073.28,56601,4.69,71734.3,-12.91,-22.67,-24.31,0,*6A
1484176074.56,56602,4.69,71744.5,-12.91,-22.73,-24.41,0,*6B
1484176075.83,56603,4.69,71728.0,-12.91,-22.83,-24.41,0,*65
1484176077.08,56604,4.69,71726.0,-12.95,-22.93,-24.35,0,*64
1484176078.32,56605,4.69,71742.0,-12.91,-22.87,-24.31,0,*60
1484176079.55,56606,4.75,71746.5,-12.91,-22.87,-24.31,0,*63
1484176080.8,56607,4.75,71754.0,-12.95,-22.87,-24.35,0,*62
1484176082.08,56608,4.69,71754.5,-12.91,-22.73,-24.41,0,*61
1484176083.33,56609,4.75,71758.5,-12.95,-22.93,-24.35,0,*69
1484176084.6,56610,4.69,71762.8,-12.91,-22.83,-24.41,0,*67
1484176085.83,56611,4.69,71748.3,-12.91,-22.87,-24.31,0,*65
1484176087.07,56612,4.75,71744.0,-12.91,-22.87,-24.31,0,*66
1484176088.33,56613,4.69,71730.3,-12.91,-22.87,-24.41,0,*60
1484176089.57,56614,4.69,71726.5,-12.91,-22.87,-24.47,0,*61
1484176090.82,56615,4.69,71740.5,-12.91,-22.97,-24.57,0,*60
1484176092.06,56616,4.69,71762.5,-12.91,-22.97,-24.47,0,*62
1484176093.3,56617,4.69,71756.0,-12.91,-22.97,-24.47,0,*63
1484176094.55,56618,4.69,71758.5,-12.91,-22.97,-24.47,0,*6C
1484176095.82,56619,4.69,71758.8,-12.91,-22.97,-24.41,0,*6B
1484176097.09,56620,4.69,71752.0,-12.91,-22.97,-24.41,0,*61
1484176098.36,56621,4.69,71742.3,-12.91,-22.97,-24.41,0,*60
1484176099.6,56622,4.69,71726.3,-12.91,-22.97,-24.47,0,*65
1484176100.85,56623,4.69,71718.5,-12.91,-22.97,-24.47,0,*64
1484176102.12,56624,4.69,71726.3,-12.91,-23.03,-24.47,0,*6F